カタログに戻る

STARLINK-31702

運用中通信VLEO
NORAD 59585·PAYLOAD·🇺🇸 United States

打ち上げ Apr 23, 2024 から Cape Canaveral Space Force Station

Loading…

次のパス (今後24時間)

TLE

最新Source: CelesTrak SupGP

元期: Sep 14, 2026, 22:10 UTC

1 59585C 24076X   26257.92409722  .00014549  00000+0  52700-3 0  2574
2 59585  43.0034  20.6356 0001702 271.3735 307.5151 15.27569175    19

AllMySatでSTARLINK-31702をリアルタイム追跡

Download on the App Store